Location: Waco, TX
(31.5480°N, 97.1670°W)
Time: 19:32:51

ISS - Pass Details

Date: 08 March 2018
Orbit: 403 x 406 km, 51.6° (Epoch: 22 March)

Event Time Altitude Azimuth Distance (km) Brightness Sun altitude
Rises 09:39:51 0° 320° (NW) 2,321 -0.5 33.9°
Reaches altitude 10° 09:41:59 10° 327° (NNW) 1,458 -1.4 34.3°
Maximum altitude 09:45:09 46° 42° (NE) 547 -2.7 34.9°
Drops below altitude 10° 09:48:18 10° 118° (ESE) 1,449 0.4 35.5°
Sets 09:50:25 0° 124° (SE) 2,305 1.0 35.8°
